Retour au catalogue

STARLINK-30239

ActifCommunicationsVLEO
NORAD 57291·PAYLOAD·🇺🇸 United States

Lancé Jul 10, 2023 depuis Cape Canaveral Space Force Station

Loading…

Prochains Passages (prochaines 24 heures)

TLE

FraisSource: CelesTrak SupGP

Époque: Sep 15, 2026, 02:14 UTC

1 57291C 23096B   26258.09354167  .00173640  00000+0  20044-2 0  2582
2 57291  42.9996 227.0765 0001606 274.4401 259.9970 15.60914140    12

Suivez STARLINK-30239 en temps réel avec AllMySat

Download on the App Store